Flag for U.S.A. Weather past 2 weeks in McAllen, Texas, U.S.A.

Now
80 °F

Clear.


Feels Like: 86 °F
Forecast: 79 / 98 °F
Wind: 7 mph from Southeast

Location: Miller International Airport

Current Time: Jul 23, 2014 at 5:21:18 AM

Latest Report: Jul 23, 2014 at 4:53 AM


Visibility: 10 mi

Pressure: 29.99 "Hg

Humidity: 90%

Dew point: 77 °F

Location of McAllenLocation

Historic Weather in McAllen — Graph

°F

McAllen temperature yesterday

Maximum temperature yesterday: 97 °F (at 6:53 PM)
Minimum temperature yesterday: 80 °F (at 1:53 AM)
Average temperature yesterday: 85 °F

Past Weeks' High & Low Weather Summary

 TemperatureHumidityPressure
High100 °F (Jul 15, 4:53 PM)100% (Jul 12, 2:53 AM)30.12 "Hg (Jul 12, 2:53 AM)
Low73 °F (Jul 10, 11:53 AM)31% (Jul 15, 3:53 PM)29.75 "Hg (Jul 17, 5:53 PM)
Average85 °F71%29.96 "Hg
* Reported Jul 8 3:53 AM — Jul 23 3:53 AM, McAllen, Weather by CustomWeather, © 2014

Note: Actual official high and low records may vary slightly from our data, if they occured in-between our weather recording intervals... More about our weather records

Advertising

McAllen weather history for previous 24 hours

 ConditionsComfort  
Time TempWeatherWind HumidityBarometerVisibility
3:53 AM
Jul 23
80 °FClear.6 mph90%30.01 "Hg10 mi
2:53 AM81 °FClear.10 mph88%30.00 "Hg10 mi
12:53 AM82 °FPassing clouds.13 mph85%30.01 "Hg10 mi
11:53 PM
Jul 22
83 °FClear.12 mph82%29.99 "Hg10 mi
10:53 PM84 °FPassing clouds.12 mph77%29.98 "Hg10 mi
9:53 PM86 °FClear.17 mph72%29.97 "Hg10 mi
8:53 PM88 °FSunny.18 mph63%29.95 "Hg10 mi
7:53 PM92 °FSunny.20 mph52%29.93 "Hg10 mi
6:53 PM97 °FSunny.18 mph40%29.90 "Hg10 mi
11:53 AM93 °FSunny.13 mph50%30.00 "Hg10 mi
10:53 AM90 °FSunny.13 mph57%30.01 "Hg10 mi
9:53 AM87 °FPartly sunny.15 mph65%30.01 "Hg10 mi
8:53 AM83 °FOvercast.14 mph79%30.00 "Hg10 mi
7:53 AM80 °FPartly sunny.12 mph90%29.98 "Hg9 mi
6:53 AM80 °FPassing clouds.10 mph90%29.96 "Hg10 mi
5:53 AM81 °FMostly cloudy.10 mph88%29.95 "Hg10 mi
Weather by CustomWeather, © 2014

See weather overviewHow to use our weather pages